Regional Weather Roundup
Issued by NWS

Home | Current Version | Previous Version | Text Only | Print | Product List | Glossary On
Versions: 1 2 3 4 5 6 7 8 9 10 11 12 13 14 15 16 17 18 19 20 21 22 23 24 25 26 27 28 29 30 31 32 33 34 35 36 37 38 39 40 41 42 43 44 45 46 47 48 49 50
972
ASUS43 KMKX 231700
RWRWI

WISCONSIN REGIONAL WEATHER ROUNDUP
NATIONAL WEATHER SERVICE MILWAUKEE/SULLIVAN WI
1200 PM CDT THU MAR 23 2017

NOTE: "FAIR" INDICATES FEW OR NO CLOUDS BELOW 12,000 FEET WITH NO
SIGNIFICANT WEATHER AND/OR OBSTRUCTIONS TO VISIBILITY.

WIZ001-002-006>008-014>016-023>028-231800-
NORTHWEST WISCONSIN

CITY           SKY/WX    TMP DP  RH WIND       PRES   REMARKS
SUPERIOR ARPT  CLOUDY    37  25  63 S12       30.07F WCI  29
ASHLAND        CLOUDY    35  24  64 S7        30.09F WCI  29
HAYWARD        CLOUDY    36  21  54 S12       30.08F WCI  28
SIREN          CLOUDY    37  23  56 S14G20    30.07F WCI  28
CUMBERLAND     CLOUDY    34  21  60 SE13G20   30.08F WCI  25
RICE LAKE      CLOUDY    35  24  64 SE12      30.12F WCI  26
CHETEK         CLOUDY    33  23  66 SE13G18   30.12S WCI  24
LADYSMITH      CLOUDY    35  22  60 S12G18    30.14F WCI  26
EAU CLAIRE     NOT AVBL
MENOMONIE      CLOUDY    38  21  50 SE10G20   30.12F WCI  31
NEW RICHMOND   CLOUDY    38  21  50 S12G21    30.07F WCI  31
OSCEOLA        CLOUDY    39  23  52 SE16G22   30.09F WCI  30
$$

WIZ003>005-009-010-017-018-231800-
NORTH CENTRAL WISCONSIN

CITY           SKY/WX    TMP DP  RH WIND       PRES   REMARKS
MANITOWISH WTR CLOUDY    32  19  59 S16       30.11F WCI  21
ARBOR VITAE    CLOUDY    32  21  64 S13G20    30.13F WCI  22
WOODRUFF       CLOUDY    32  21  64 S13G20    30.13F WCI  22
RHINELANDER    CLOUDY    32  20  61 S13G22    30.17S WCI  22
EAGLE RIVER    CLOUDY    29  19  67 S10G17    30.15F WCI  20
LAND O LAKES   CLOUDY    30  22  72 S13G18    30.15F WCI  20
PHILLIPS       CLOUDY    32  21  63 S12G20    30.12F WCI  23
TOMAHAWK       CLOUDY    31  22  69 S6        30.17F WCI  25
MEDFORD        CLOUDY    32  21  62 SE15G22   30.15F WCI  22
MERRILL        CLOUDY    35  22  60 S9G16     30.19S WCI  28
$$

WIZ029-030-035-036-043>047-231800-
CENTRAL WISCONSIN

CITY           SKY/WX    TMP DP  RH WIND       PRES   REMARKS
WAUSAU         CLOUDY    35  21  56 SE17      30.19F WCI  25
MOSINEE        CLOUDY    34  23  64 SE12G18   30.21F WCI  25
MARSHFIELD     CLOUDY    35  21  56 S20G25    30.16F WCI  24
STEVENS POINT  CLOUDY    35  22  59 SE15      30.23F WCI  25
WAUPACA        CLOUDY    39  23  52 SE13G18   30.27F WCI  32
WAUTOMA        CLOUDY    40  22  48 SE16      30.24F WCI  31
WISC RAPIDS    CLOUDY    40  22  48 S13       30.21F WCI  32
CAMP DOUGLAS   NOT AVBL
$$

WIZ011>013-019>022-031-037>040-048>050-231800-
NORTHEAST WISCONSIN

CITY           SKY/WX    TMP DP  RH WIND       PRES   REMARKS
ANTIGO         CLOUDY    31  23  73 SE14G22   30.20F WCI  21
SHAWANO        CLOUDY    37  24  59 SE13G18   30.27F WCI  29
OCONTO         CLOUDY    35  26  69 S12       30.29F WCI  26
STURGEON BAY   CLOUDY    35  25  66 S17G24    30.30F WCI  25
GREEN BAY      CLOUDY    36  27  69 S16       30.29F WCI  26
MANITOWOC      NOT AVBL
APPLETON       CLOUDY    36  21  55 SE15G23   30.26  WCI  26
CLINTONVILLE   CLOUDY    36  23  60 S15G22    30.27F WCI  26
OSHKOSH        CLOUDY    39  24  55 S14G22    30.27F WCI  31
$$

WIZ032>034-041-042-053>061-231800-
SOUTHWEST WISCONSIN

CITY           SKY/WX    TMP DP  RH WIND       PRES   REMARKS
LA CROSSE      CLOUDY    41  21  44 S14       30.15F
SPARTA         CLOUDY    39  22  50 S8G16     30.18F WCI  33
VIROQUA        CLOUDY    37  22  55 SE17      30.14F WCI  27
BOSCOBEL       CLOUDY    43  22  43 SE8       30.19F
PRAIRIE DU CHI CLOUDY    40  22  47 SE12G18   30.18F WCI  33
PLATTEVILLE    CLOUDY    39  24  55 SE15      30.21F WCI  31
$$

WIZ056-057-062-063-064-067-068-231800-
SOUTH CENTRAL WISCONSIN

CITY           SKY/WX    TMP DP  RH WIND       PRES   REMARKS
REEDSBURG      CLOUDY    38  22  54 SE10      30.22F WCI  30
BARABOO/DELLS  CLOUDY    37  22  54 SE13      30.23F WCI  29
LONE ROCK      NOT AVBL
MINERAL POINT  CLOUDY    41  23  48 SE17      30.20F
MADISON        CLOUDY    40  20  44 S16       30.24F WCI  31
MIDDLETON      CLOUDY    42  22  45 S15       30.25F
WATERTOWN      CLOUDY    40  23  50 S14G20    30.29F WCI  32
MONROE         CLOUDY    39  23  52 S18G25    30.25F WCI  30
JANESVILLE     PTSUNNY   45  19  36 S18G24    30.28F
$$

WIZ051-052-058>065-066-070>072-231800-
SOUTHEAST WISCONSIN

CITY           SKY/WX    TMP DP  RH WIND       PRES   REMARKS
MILWAUKEE      PTSUNNY   40  22  48 S21       30.34F WCI  30
WAUKESHA       NOT AVBL
MILWAUKEE/TIMM CLOUDY    37  19  48 SE15G21   30.34F WCI  28
RACINE         CLOUDY    38  22  52 S21G28    30.36F WCI  28
KENOSHA        MOSUNNY   39  24  55 S16G24    30.33F WCI  30
FOND DU LAC    PTSUNNY   38  23  55 S21       30.28F WCI  28
SHEBOYGAN      CLOUDY    35  25  66 S18G28    30.33F WCI  24
WEST BEND      CLOUDY    36  23  60 SE12G17   30.30F WCI  27
JUNEAU         CLOUDY    37  23  55 SE16      30.30F WCI  28
$$

LSZ147-162-231800-
LAKE SUPERIOR

STATION/POSITION TIME  TEMP    WIND        PRES    WAVE
                       AIR SEA DIR/SP/G            HT/PER
                 (UTC) (F)     (DEG/KT/KT) (MB)    (FT/S)
DEVILS ISLAND    1600   33     190/  8/ 11 1020.6F
PORT WING        1640   37     170/  7/ 10 1019.0S
SAXON HARBOR     1640   37     200/  5/ 15 1019.0F
$$

LMZ867-665-643>646-231800-
LAKE MICHIGAN

STATION/POSITION TIME  TEMP    WIND        PRES    WAVE
                       AIR SEA DIR/SP/G            HT/PER
                 (UTC) (F)     (DEG/KT/KT) (MB)    (FT/S)
CHAMBERS ISLAND  1640   36     150/  5/ 10 1026.1F
NORTHPORT PIER   1640   35     160/ 12/ 17 1026.8F
SISTER BAY       1605   37     180/ 20/ 25   N/A
KEWAUNEE LAKESHO 1630   35     170/ 21/ 25 1026.8F
SHEBOYGAN LAKESH 1600   34     160/ 26/ 27 1028.3F
PORT WASHINGTON  1640   36     170/ 17/ 23 1028.1F
MILWAUKEE LAKESH 1630   34     160/ 22/ 24   N/A
KENOSHA   LAKESH 1600   34     160/ 22/ 24 1028.4
$$

TC  - TEMPERATURE IN CELSIUS
VSB - VISIBILITY IN STATUTE MILES
WCI - WIND CHILL INDEX
HX  - HEAT INDEX





USA.gov is the U.S. government's official web portal to all federal, state and local government web resources and services.